Temp_Advection
nan nan nan nan nan nan nan nan nan nan nan nan nan nan nan nan nan nan nan nan nan nan nan nan nan nan nan nan nan nan nan nan nan nan nan nan nan nan nan nan nan nan nan nan nan nan nan nan nan
nan 0 0 -0 -0 0 -0 -0 -0 -0 -0 0 0 -0 -0 -0 0 0 0 1 0 0 -1 -0 0 0 -0 -0 -0 -0 0 0 0 -0 -0 -0 -0 0 -0 -0 -0 0 0 0 0 -0 -0 -0 nan
nan -0 -0 -0 0 -0 -0 -0 -0 -1 -0 -0 -0 -0 -0 -0 -0 -0 -0 0 0 0 -0 -1 -0 0 0 -0 -0 -0 -0 0 0 0 -0 -0 -0 0 -0 -0 -0 0 0 0 -0 0 -0 -0 nan
nan 0 -0 -0 -0 -0 -0 -0 0 -1 -0 0 -0 -0 0 0 0 -0 -0 0 0 0 0 -1 0 0 0 0 0 -0 -0 -0 0 0 0 -0 -0 -0 0 -0 -0 0 0 0 -0 -0 -0 -0 nan
nan -0 -0 0 -0 -0 -0 -0 0 -0 -1 0 -0 -0 0 0 0 0 0 0 0 0 0 0 1 0 0 0 0 0 0 -0 -0 0 0 -0 -1 -0 -0 -0 -0 0 0 -0 -0 -0 -0 0 nan
nan -0 -0 -0 -0 -0 -0 -0 -0 -0 -0 0 -0 -0 0 0 0 0 0 0 0 0 0 -0 -0 0 0 1 0 0 0 0 -0 -0 -0 0 -0 -0 -0 -0 -0 -0 0 -0 -0 -0 -0 -0 nan
nan -0 -0 0 -0 -0 -0 -0 -0 -1 -1 -0 -1 -0 0 0 0 1 0 0 0 1 0 -0 -1 -0 0 0 0 0 0 0 0 -0 -0 -0 -0 -0 -0 -0 -0 -0 -0 -0 0 -0 -0 0 nan
nan -0 -0 -0 -0 -0 -0 -1 -0 0 -0 0 -0 -0 -0 -0 0 0 0 0 0 0 0 0 0 -0 -0 -0 -0 0 0 -0 0 0 0 -0 -0 -0 -0 -0 -0 -0 -0 -0 -0 -0 -0 -0 nan
nan 0 -0 -1 -0 0 -0 -0 -1 -0 -1 -1 0 -0 -0 -0 -0 -0 0 0 0 0 0 0 0 -0 -0 -1 -0 -0 -0 -0 -0 0 0 0 0 0 -0 0 0 0 0 0 0 0 0 0 nan
nan -0 -1 -0 0 -0 -0 0 -0 -1 -2 -0 0 0 0 -0 0 -0 -0 -0 -0 -0 -0 -0 -0 -0 -0 -0 -0 -0 -0 -0 -0 -0 -0 0 0 0 0 0 0 0 0 0 0 0 0 0 nan
nan -1 -0 0 1 0 -0 -0 -0 -0 -0 -0 -1 2 -0 -0 -0 -0 -0 -0 -0 -0 -0 -0 0 0 0 -0 -0 -0 -0 -0 -0 -0 -0 -0 -0 -0 0 0 0 0 0 0 0 0 0 0 nan
nan -1 -0 0 0 -0 0 -0 -0 -0 -1 -1 1 -1 -0 -1 -1 -0 -0 0 0 -0 -0 0 0 0 0 0 0 0 0 0 -0 -0 -0 -0 -0 -0 0 0 0 0 0 0 0 0 0 0 nan
nan -0 0 -0 0 0 0 0 -0 -2 -2 -1 -1 -1 -0 -0 -0 0 0 0 0 -0 0 0 -0 -0 0 0 0 0 0 0 0 0 0 0 -0 0 0 0 0 0 0 -0 -0 -0 0 0 nan
nan 0 1 0 0 0 0 0 -0 -2 -1 -1 -1 -0 1 1 1 0 -0 -0 -0 0 0 -0 -0 -0 0 0 0 0 0 0 0 0 0 0 0 0 0 0 0 0 0 0 0 -0 -0 0 nan
nan -0 -0 0 0 0 0 0 -0 -3 0 -1 -1 0 0 0 0 -0 -0 0 0 0 -0 0 0 0 0 0 0 0 0 0 0 0 0 0 0 0 0 0 0 0 0 0 0 0 -0 -0 nan
nan 0 0 -0 -0 -0 -0 -0 -1 -0 -0 -2 -1 -0 -0 -0 -0 -0 -0 0 -0 0 0 0 0 0 0 0 0 0 0 0 0 0 0 0 0 0 -0 -0 -0 0 0 0 0 0 -0 0 nan
nan 0 0 0 -0 0 0 -0 -0 -0 -0 -1 -1 -1 -0 -0 -0 -0 -0 -0 0 -0 -0 -0 0 0 0 0 0 0 0 0 0 0 0 0 0 0 -0 -0 -0 0 0 0 0 0 0 -0 nan
nan -0 -0 -0 -0 -0 0 -0 0 -0 0 -0 -1 -1 -1 -0 0 0 -0 0 0 -0 -0 0 0 0 0 0 0 0 0 0 0 0 -0 0 0 0 0 0 0 0 0 0 0 0 0 0 nan
nan 0 0 0 -0 -0 -0 -0 -0 0 -0 -1 -1 -1 -0 0 0 -0 0 0 0 0 0 0 0 0 -0 -0 -0 -0 -0 0 0 0 0 0 -0 0 0 0 0 0 0 0 0 0 -0 -0 nan
nan 0 0 0 0 0 0 -0 -0 0 -0 -1 -0 -0 -0 -0 -0 0 0 0 0 0 0 0 0 0 0 0 0 0 0 0 -0 0 0 0 0 0 0 0 0 0 0 0 0 -0 -0 0 nan
nan -0 -0 0 0 -0 -0 -0 0 0 -0 -1 -1 -0 -0 -0 0 0 0 0 0 1 0 0 1 0 0 0 0 0 0 0 0 0 0 1 0 0 0 0 0 0 0 0 0 0 0 0 nan
nan -0 -0 -0 0 0 0 0 -0 -0 1 -0 -1 -0 -0 0 0 0 0 0 1 0 0 0 0 0 0 0 1 1 1 0 0 0 0 0 0 0 0 0 0 0 0 0 0 0 0 0 nan
nan 0 0 -0 0 0 0 0 -0 0 -0 -0 -0 -2 -0 1 0 1 1 1 0 0 0 0 0 0 0 0 0 0 0 -0 -0 0 -0 -0 0 0 0 0 0 0 0 0 0 0 0 0 nan
nan -0 -0 -0 -0 -0 0 0 -0 -0 -0 0 -0 -1 1 1 1 1 1 1 1 0 0 0 0 0 0 0 0 0 0 -0 -0 -0 -0 -0 -0 -0 -0 0 0 0 0 0 0 0 0 0 nan
nan -0 -0 -0 -0 -0 -0 0 -1 0 0 -0 -1 -1 0 1 1 1 1 1 0 0 0 0 0 0 0 0 0 0 -0 -0 0 -0 -0 -0 -0 -0 -0 -0 0 0 -0 0 0 0 0 -0 nan
nan 0 -0 0 0 0 -0 -0 -0 -0 -0 -1 -0 0 1 1 1 1 1 0 0 0 0 0 0 0 0 -0 -0 0 0 0 -0 -0 -0 -0 -0 -1 -0 -0 -0 -0 0 0 0 0 0 0 nan
nan 0 -0 -0 -0 0 -0 -0 -0 -0 -0 0 1 1 1 0 1 1 0 0 0 0 0 0 0 -0 -0 -0 0 0 -0 -0 0 0 -0 -0 -0 -0 -0 -0 -0 -0 -0 -0 -0 -0 0 0 nan
nan -0 -0 0 0 -0 -0 -0 -0 -0 0 0 0 0 0 0 0 0 0 0 0 0 0 0 0 0 -0 -0 -0 -0 0 0 -0 -0 0 -0 -0 -0 -0 -0 -0 -0 -0 -0 -0 -0 0 0 nan
nan 0 -0 -0 -0 0 -0 0 -0 -0 0 -0 -0 -1 -0 -0 -0 0 0 0 0 0 0 0 0 0 -0 0 -0 -0 -0 -0 0 0 -0 -0 -0 -0 -0 -0 -0 -0 -0 -0 -0 -0 -0 0 nan
nan nan nan nan nan nan nan nan nan nan nan nan nan nan nan nan nan nan nan nan nan nan nan nan nan nan nan nan nan nan nan nan nan nan nan nan nan nan nan nan nan nan nan nan nan nan nan nan nan
Wind_Speed
7 4 4 3 3 4 3 6 2 5 3 2 5 4 6 6 3 4 17 18 23 24 22 22 20 18 17 16 15 14 12 9 8 6 5 6 8 10 13 11 7 7 7 8 7 9 9 9 7
5 3 5 3 4 2 4 4 4 6 2 11 13 7 4 3 3 8 22 19 17 21 24 22 20 19 17 16 15 13 11 10 8 5 6 8 12 11 12 11 6 6 8 9 10 10 9 8 8
3 2 5 4 3 4 4 4 5 7 7 6 4 6 3 3 5 20 10 22 20 20 23 23 22 19 18 16 14 13 11 11 7 6 7 10 12 11 12 12 7 5 7 9 10 10 10 10 9
1 2 4 4 5 5 4 4 6 8 5 5 10 7 5 2 12 11 19 18 17 19 23 23 20 19 18 17 15 13 11 9 7 6 8 12 13 13 11 8 6 4 6 8 9 9 9 8 7
5 3 3 1 4 4 4 8 12 7 10 3 5 4 3 11 8 11 18 18 18 21 21 22 21 19 18 17 15 13 12 8 5 7 10 13 13 10 10 8 6 5 6 7 8 8 7 6 5
3 3 3 3 4 4 6 10 10 6 7 3 7 6 3 8 10 18 16 15 15 20 22 24 21 20 19 18 16 13 9 7 6 5 8 10 11 11 11 9 7 7 7 7 7 6 6 5 4
6 3 4 2 2 4 3 14 5 10 8 2 13 4 7 9 14 19 17 14 13 16 18 18 20 23 21 18 16 13 12 9 7 5 5 8 8 8 9 8 7 7 7 6 6 6 6 5 4
15 6 6 4 3 4 5 12 10 19 5 3 8 6 6 17 19 21 19 13 12 14 14 14 13 18 23 21 17 14 12 10 7 6 6 4 3 6 6 7 7 6 5 4 4 4 4 4 4
18 4 13 11 7 4 5 9 15 16 14 13 3 12 17 22 21 23 22 19 16 14 11 12 13 14 22 22 17 15 14 10 9 7 8 8 7 6 6 7 7 6 6 5 3 3 3 4 4
8 7 14 11 1 1 4 10 13 13 28 6 7 15 25 22 23 25 24 22 19 15 12 11 13 14 18 20 19 14 14 13 10 8 8 7 8 8 8 8 8 7 6 6 6 5 6 6 7
8 15 4 9 13 5 8 10 14 10 8 6 21 29 24 22 22 22 20 18 16 13 11 11 13 14 15 17 17 15 13 13 11 9 9 8 9 9 9 9 9 8 8 8 9 9 9 9 10
9 10 17 10 13 7 6 13 15 8 16 25 27 17 23 22 23 22 22 20 19 16 13 12 13 13 14 14 14 14 13 12 11 9 9 8 9 10 10 10 9 9 9 10 11 12 13 13 13
4 17 18 19 16 5 3 8 9 28 26 29 16 22 22 24 22 22 20 19 18 16 14 15 14 13 12 13 13 12 10 12 11 10 10 9 9 9 10 10 10 9 9 9 10 13 16 16 16
11 14 16 13 9 8 5 4 4 27 24 23 9 22 25 24 24 23 21 20 20 17 16 14 16 14 13 12 12 10 9 7 10 10 9 10 10 10 11 11 11 12 12 10 11 13 15 15 16
12 7 6 13 15 6 13 4 7 37 26 30 16 16 16 19 21 22 21 21 21 20 18 17 15 15 17 15 13 12 10 9 11 11 11 10 11 12 13 13 14 14 14 14 15 16 18 19 20
6 4 5 9 17 9 14 7 17 24 25 30 23 12 13 14 16 15 14 14 14 15 21 19 21 20 18 16 15 15 14 14 14 15 15 15 15 14 15 17 17 16 17 19 20 21 21 23 24
2 7 6 9 25 9 11 5 12 20 22 25 22 15 14 13 13 13 13 14 14 13 15 16 17 21 22 20 20 19 18 19 18 18 19 17 17 19 19 19 19 19 20 22 24 25 26 27 27
15 6 9 8 13 12 13 2 6 10 19 25 29 27 19 15 14 13 14 16 18 17 17 17 18 17 18 21 24 24 23 22 21 22 24 22 23 24 24 25 24 24 25 26 27 29 30 31 31
6 4 8 3 8 10 16 6 10 18 24 23 27 27 25 18 15 13 13 17 18 18 18 19 20 21 21 21 22 23 24 24 24 24 26 27 26 26 28 29 28 28 30 30 31 32 34 34 34
8 5 4 2 3 10 7 10 11 12 22 28 21 19 25 19 15 13 13 15 18 18 17 17 18 21 22 23 24 25 26 26 26 25 24 25 28 29 29 29 29 28 30 30 31 31 34 35 34
3 7 4 4 4 3 5 4 10 11 19 24 25 22 17 20 20 17 16 17 18 18 17 18 19 20 20 21 22 24 26 27 28 29 29 30 31 32 33 31 30 30 29 29 29 31 34 35 35
3 2 4 5 5 4 5 4 7 9 13 10 28 30 25 19 18 18 18 18 17 16 16 15 15 17 18 20 23 25 26 26 27 28 29 29 30 31 31 32 31 30 30 29 25 22 24 27 30
2 4 4 2 3 3 2 1 5 3 7 16 19 33 33 26 22 23 20 18 17 16 14 13 13 14 15 15 16 17 18 21 23 25 27 29 31 33 34 35 33 31 28 25 22 23 21 21 21
6 6 7 4 3 3 4 5 5 5 6 5 12 30 30 25 23 22 20 19 17 15 14 14 14 14 15 15 15 15 15 16 17 19 20 20 20 20 20 21 23 22 25 23 22 21 21 18 22
3 5 2 2 1 4 3 4 14 5 5 6 10 19 26 26 26 25 23 20 17 15 14 13 13 13 14 15 17 18 20 21 22 22 23 23 22 21 20 19 20 20 18 22 20 18 20 22 25
5 6 5 5 4 3 1 7 6 5 9 17 20 18 23 27 28 25 20 17 14 13 12 12 13 14 15 17 19 20 21 21 22 23 24 24 23 21 20 18 17 17 17 16 17 18 22 23 23
4 4 3 6 3 3 4 7 8 7 7 6 13 20 25 27 26 23 18 15 13 12 12 12 13 14 15 17 17 18 18 18 19 19 19 19 19 18 17 16 16 17 16 17 19 20 23 22 21
3 5 3 3 4 4 4 5 6 5 8 5 8 20 27 27 25 21 17 14 13 13 12 13 14 15 16 17 17 16 16 15 15 15 14 14 14 13 13 14 15 17 16 16 16 17 17 17 17
2 1 3 4 4 4 1 5 6 6 8 8 10 22 26 25 24 21 18 15 15 14 14 15 16 17 17 18 17 16 15 14 14 14 14 14 13 12 12 12 14 15 15 15 15 14 15 15 15
1 4 5 4 4 2 2 6 2 6 7 10 13 23 22 23 23 21 19 18 17 16 16 16 17 18 19 19 19 17 15 14 12 13 14 15 14 13 13 13 14 14 13 13 13 13 14 15 17
Wind_Direction
86 161 186 189 74 63 233 258 262 302 275 230 139 162 162 90 151 201 146 160 164 159 160 156 160 156 155 148 154 152 142 136 135 114 89 107 119 126 132 131 121 91 64 60 86 116 134 147 149
98 91 157 133 103 130 255 254 263 245 220 132 101 93 51 96 107 151 148 146 161 165 162 158 163 157 157 157 152 153 146 144 131 104 97 116 123 127 135 138 149 97 60 67 83 103 120 140 156
97 0 139 113 130 189 222 204 294 288 214 191 111 97 91 93 122 156 163 152 160 170 167 164 164 163 161 160 158 153 163 153 135 108 114 127 131 131 142 154 143 104 70 86 92 99 107 117 130
164 126 79 104 206 249 241 303 319 326 262 215 143 78 99 140 141 162 158 158 161 171 171 169 170 167 167 165 167 171 178 170 153 135 133 143 142 146 144 143 142 113 94 102 102 103 107 115 123
127 100 76 94 245 266 277 326 336 303 304 150 155 140 75 157 161 168 164 161 167 167 171 170 167 172 174 169 173 182 182 176 175 155 155 156 164 154 154 151 141 127 118 115 110 113 117 123 133
105 105 100 196 248 293 307 338 335 307 282 193 112 107 93 182 191 164 163 155 171 173 169 170 171 176 176 175 183 187 193 204 169 166 166 172 173 169 166 165 156 146 138 128 122 122 129 142 155
145 108 167 169 294 316 308 344 31 323 300 319 140 90 132 169 172 158 155 153 161 178 182 185 179 179 182 182 187 196 207 201 188 177 181 169 175 183 173 174 168 161 153 142 138 141 147 160 178
216 156 154 199 190 259 1 352 14 5 313 115 138 156 170 170 169 160 158 159 163 169 182 189 190 189 189 192 185 197 202 208 198 184 173 177 185 175 177 172 173 171 165 156 159 160 168 181 198
187 174 214 197 191 205 47 20 350 0 355 329 165 157 169 162 168 167 170 167 169 173 185 201 207 202 199 200 204 195 208 219 213 202 191 183 185 187 194 187 188 193 196 196 197 207 215 228 241
158 208 222 203 207 1 317 51 346 358 328 341 106 142 161 165 172 177 178 175 179 184 191 204 202 198 200 202 210 208 209 218 223 223 214 205 204 201 200 205 209 219 218 225 232 237 241 247 253
167 210 158 194 210 286 328 352 351 356 331 30 341 157 168 176 179 186 187 190 189 185 187 184 184 191 197 204 210 218 219 221 224 226 225 225 223 223 223 225 228 239 251 255 257 259 262 262 264
171 218 174 162 186 252 306 319 327 325 277 295 310 209 172 184 190 191 193 196 196 196 192 186 182 185 193 202 216 225 227 229 228 232 230 240 241 240 237 241 242 246 259 265 267 269 272 271 270
199 174 166 135 144 152 249 291 318 293 288 317 291 195 193 188 198 196 201 205 208 207 209 207 203 194 194 199 204 214 225 237 235 235 235 241 243 249 245 246 251 257 267 271 279 279 277 278 276
177 161 154 168 173 187 222 274 328 277 277 309 286 197 200 194 194 198 204 210 217 222 221 215 218 212 212 210 212 217 231 243 236 234 238 244 254 256 252 251 258 260 267 276 282 285 282 277 276
152 122 104 162 181 202 203 188 220 266 262 287 306 209 200 196 200 205 213 219 228 237 239 240 234 231 230 228 232 234 240 244 245 242 243 250 259 264 267 265 265 269 271 275 279 283 283 280 281
119 113 162 190 167 195 167 224 211 258 269 276 286 237 199 189 197 200 203 207 208 214 220 235 240 244 245 245 249 250 250 255 255 252 252 258 262 266 272 273 276 281 279 280 279 281 283 284 281
156 185 169 160 186 153 186 219 204 223 253 269 268 259 226 199 198 201 206 206 200 199 202 210 222 236 247 254 256 257 257 257 261 261 260 263 268 270 270 275 280 284 284 283 282 283 281 284 286
185 184 181 165 183 168 195 198 153 240 267 270 264 259 243 221 211 219 224 223 217 217 217 215 220 224 227 237 245 249 250 253 257 261 263 265 267 268 269 269 274 278 280 280 281 281 284 283 285
117 92 159 145 184 168 195 209 158 198 261 271 263 250 234 232 230 233 237 224 222 220 223 225 225 223 223 227 231 237 242 247 251 257 258 260 263 267 270 272 274 274 277 280 279 282 280 280 278
132 111 151 127 130 179 190 222 219 215 219 238 252 258 232 226 221 215 211 206 208 219 223 224 227 231 234 237 239 240 244 247 250 251 253 255 259 262 265 269 270 272 274 274 275 276 280 284 285
50 154 165 158 97 73 122 258 231 235 239 248 251 254 244 220 213 204 199 201 210 217 219 221 223 228 234 239 243 246 248 251 252 255 257 257 260 262 265 268 269 270 270 275 275 274 273 279 283
70 159 133 112 120 199 161 263 246 221 229 232 244 243 240 235 212 206 203 203 208 215 224 228 235 241 244 248 251 251 252 253 254 256 257 258 260 261 262 266 267 267 269 270 275 278 278 274 279
173 140 141 101 100 126 248 144 252 198 232 236 236 237 239 239 218 200 196 200 206 211 219 229 239 249 256 257 258 256 257 260 264 264 264 263 263 265 267 269 270 270 267 267 270 278 275 278 286
140 84 52 54 85 300 188 165 254 209 215 241 244 239 234 216 203 194 190 197 208 213 224 235 242 247 248 252 258 262 263 265 267 269 271 272 273 274 276 272 268 268 260 262 267 273 269 279 290
103 87 68 30 337 227 339 173 247 252 241 222 245 249 215 199 190 187 194 197 207 218 229 239 246 252 258 264 268 272 275 275 276 276 277 277 277 277 278 281 273 267 264 255 253 264 273 281 278
164 179 151 179 196 207 48 230 248 252 268 243 257 259 200 185 185 188 190 199 214 227 237 248 260 269 275 278 278 278 278 278 278 278 278 279 281 282 283 280 275 271 261 252 252 260 267 274 281
170 173 175 106 16 51 222 286 292 282 280 249 205 192 186 179 179 183 191 205 221 237 251 265 277 284 286 285 283 282 281 280 278 277 278 280 281 279 273 271 269 271 276 273 271 272 274 276 277
126 163 82 6 130 237 262 276 244 284 255 236 203 179 178 177 180 187 196 210 227 243 259 273 282 286 288 287 286 284 282 280 279 280 280 281 282 280 272 263 257 273 277 279 278 277 278 277 275
138 160 68 127 157 182 240 254 217 252 263 224 196 190 186 184 187 194 203 217 233 246 261 272 279 284 288 287 285 283 282 281 279 276 276 274 271 268 264 261 262 267 272 275 277 276 276 274 272
142 213 176 145 234 228 150 266 235 263 274 208 193 195 190 191 196 200 211 222 236 250 263 272 277 282 284 283 280 275 274 274 275 274 272 269 267 266 268 266 266 268 271 273 274 274 275 276 281
Height
1524 1525 1527 1530 1539 1543 1545 1536 1522 1521 1517 1512 1512 1514 1514 1516 1519 1531 1520 1524 1527 1529 1534 1538 1541 1545 1547 1549 1550 1552 1552 1553 1553 1554 1554 1554 1555 1556 1557 1558 1559 1559 1558 1558 1557 1557 1558 1559 1559
1523 1525 1527 1529 1544 1552 1543 1528 1522 1519 1514 1514 1512 1513 1514 1519 1518 1519 1521 1524 1528 1531 1534 1539 1542 1545 1547 1549 1551 1552 1553 1553 1554 1554 1555 1555 1556 1557 1558 1560 1560 1560 1560 1559 1559 1559 1559 1559 1560
1522 1524 1525 1532 1544 1546 1540 1523 1520 1516 1514 1514 1514 1516 1516 1517 1518 1521 1523 1524 1528 1531 1535 1539 1542 1545 1547 1549 1551 1552 1553 1553 1554 1555 1556 1557 1558 1558 1559 1560 1561 1561 1561 1561 1561 1561 1561 1561 1561
1522 1525 1528 1535 1540 1532 1529 1522 1518 1517 1515 1513 1513 1517 1519 1518 1519 1523 1524 1526 1529 1532 1535 1539 1543 1546 1548 1549 1551 1553 1554 1554 1555 1556 1557 1558 1559 1560 1560 1561 1562 1563 1563 1563 1563 1563 1563 1563 1564
1521 1523 1534 1538 1534 1530 1525 1522 1518 1517 1517 1513 1512 1517 1519 1520 1521 1524 1526 1528 1530 1533 1536 1540 1543 1546 1548 1550 1553 1554 1554 1555 1556 1557 1557 1558 1559 1560 1561 1562 1563 1564 1564 1565 1565 1566 1566 1566 1566
1521 1524 1537 1540 1531 1529 1525 1521 1518 1517 1514 1513 1512 1516 1521 1521 1521 1524 1528 1530 1533 1534 1537 1541 1544 1547 1549 1551 1553 1555 1555 1557 1558 1558 1558 1559 1560 1561 1562 1563 1564 1565 1565 1566 1567 1567 1568 1568 1568
1520 1525 1533 1535 1531 1530 1524 1521 1520 1520 1516 1513 1513 1517 1521 1522 1523 1526 1530 1533 1535 1536 1538 1540 1544 1547 1550 1552 1554 1556 1556 1557 1558 1560 1560 1560 1561 1562 1563 1564 1565 1566 1566 1567 1567 1568 1568 1569 1569
1523 1525 1530 1531 1529 1528 1524 1521 1522 1522 1517 1516 1513 1517 1521 1520 1525 1528 1531 1534 1536 1537 1540 1542 1545 1547 1550 1552 1554 1556 1557 1558 1559 1560 1561 1562 1563 1563 1563 1564 1566 1567 1568 1568 1569 1569 1570 1570 1570
1516 1523 1524 1525 1525 1522 1522 1524 1523 1522 1520 1518 1514 1514 1517 1520 1525 1528 1531 1533 1536 1539 1541 1542 1545 1547 1549 1551 1553 1554 1556 1558 1559 1560 1561 1561 1562 1564 1565 1565 1566 1567 1568 1569 1569 1570 1570 1571 1570
1512 1517 1514 1514 1516 1518 1520 1526 1529 1526 1520 1517 1516 1516 1519 1521 1525 1527 1530 1532 1535 1538 1540 1542 1544 1546 1548 1551 1552 1553 1555 1557 1559 1560 1561 1562 1562 1563 1564 1565 1566 1567 1568 1569 1569 1570 1570 1571 1571
1509 1513 1513 1515 1518 1519 1520 1525 1530 1530 1524 1522 1528 1516 1519 1522 1525 1528 1530 1533 1535 1538 1540 1542 1544 1546 1548 1550 1552 1553 1555 1556 1558 1559 1561 1562 1562 1563 1564 1565 1566 1567 1568 1568 1569 1569 1570 1570 1570
1509 1510 1512 1516 1517 1522 1522 1525 1528 1530 1526 1524 1525 1525 1519 1522 1524 1527 1531 1533 1536 1538 1541 1543 1544 1546 1548 1550 1552 1554 1554 1556 1557 1559 1560 1561 1562 1563 1564 1565 1565 1566 1567 1567 1568 1568 1568 1569 1569
1505 1506 1511 1513 1519 1524 1526 1529 1532 1526 1523 1524 1521 1522 1522 1521 1524 1527 1531 1534 1536 1537 1540 1542 1544 1545 1547 1549 1551 1553 1554 1556 1558 1558 1559 1560 1561 1562 1563 1564 1564 1565 1565 1566 1567 1567 1567 1566 1567
1504 1505 1510 1514 1520 1525 1530 1531 1534 1522 1525 1524 1520 1520 1522 1522 1524 1527 1530 1531 1534 1537 1539 1541 1542 1545 1546 1548 1550 1551 1553 1555 1556 1558 1558 1559 1559 1560 1561 1562 1562 1563 1564 1565 1565 1565 1565 1564 1564
1501 1507 1513 1515 1520 1526 1530 1534 1532 1522 1525 1525 1525 1524 1522 1523 1524 1527 1529 1532 1533 1535 1537 1538 1541 1543 1544 1547 1549 1550 1552 1553 1554 1556 1557 1557 1558 1558 1559 1560 1560 1561 1562 1562 1562 1562 1563 1562 1562
1505 1509 1516 1516 1518 1524 1528 1528 1529 1527 1528 1526 1525 1525 1523 1523 1524 1526 1528 1531 1532 1534 1535 1537 1538 1539 1542 1545 1547 1548 1549 1551 1552 1553 1555 1556 1556 1557 1557 1557 1557 1558 1559 1559 1558 1559 1559 1559 1559
1506 1514 1513 1514 1512 1516 1522 1520 1518 1524 1526 1522 1522 1524 1523 1522 1524 1525 1526 1528 1531 1533 1535 1536 1537 1539 1540 1542 1544 1546 1547 1548 1549 1550 1552 1553 1553 1554 1554 1554 1554 1555 1555 1554 1554 1554 1555 1555 1555
1499 1509 1507 1508 1508 1514 1518 1515 1513 1517 1518 1519 1518 1520 1521 1520 1522 1523 1524 1526 1528 1530 1533 1535 1536 1538 1539 1539 1541 1542 1543 1544 1545 1546 1548 1549 1549 1550 1550 1550 1551 1551 1551 1551 1550 1550 1550 1550 1550
1497 1501 1509 1506 1505 1510 1513 1515 1515 1520 1521 1516 1514 1517 1518 1518 1519 1519 1521 1523 1526 1527 1529 1531 1532 1533 1535 1536 1537 1538 1539 1540 1541 1543 1544 1545 1546 1546 1546 1546 1547 1546 1546 1546 1546 1546 1545 1545 1545
1498 1503 1508 1505 1502 1507 1512 1514 1512 1515 1517 1516 1514 1512 1513 1515 1515 1517 1518 1520 1523 1524 1526 1527 1529 1530 1531 1533 1534 1534 1535 1536 1537 1538 1539 1540 1541 1541 1541 1541 1541 1541 1541 1541 1541 1541 1540 1540 1539
1501 1504 1507 1506 1506 1510 1514 1519 1513 1508 1510 1509 1507 1508 1510 1512 1512 1514 1515 1517 1520 1521 1523 1524 1525 1527 1528 1529 1530 1530 1530 1531 1532 1533 1534 1535 1535 1535 1535 1535 1535 1535 1534 1534 1535 1535 1535 1534 1533
1504 1500 1502 1506 1511 1520 1511 1525 1509 1501 1501 1500 1499 1501 1505 1508 1510 1511 1513 1515 1518 1519 1520 1521 1522 1523 1524 1525 1526 1526 1526 1526 1527 1528 1529 1529 1529 1529 1529 1529 1529 1529 1529 1528 1529 1529 1528 1528 1527
1503 1502 1504 1509 1515 1516 1517 1523 1502 1499 1499 1491 1491 1493 1498 1503 1506 1508 1510 1513 1515 1517 1518 1519 1519 1519 1519 1520 1520 1520 1521 1521 1521 1521 1521 1522 1522 1522 1523 1523 1523 1523 1522 1523 1523 1522 1522 1523 1523
1502 1507 1513 1519 1522 1533 1516 1519 1505 1495 1490 1489 1485 1486 1491 1496 1501 1505 1508 1510 1511 1513 1514 1515 1516 1516 1516 1516 1516 1516 1517 1517 1517 1517 1516 1516 1516 1517 1517 1516 1516 1516 1516 1517 1518 1517 1517 1518 1517
1501 1510 1525 1534 1543 1535 1522 1520 1487 1484 1485 1484 1484 1482 1485 1490 1495 1500 1504 1506 1508 1510 1511 1512 1513 1514 1513 1513 1513 1513 1513 1512 1512 1512 1512 1511 1511 1512 1512 1511 1511 1511 1511 1511 1511 1512 1513 1513 1513
1507 1509 1528 1525 1536 1527 1523 1516 1492 1480 1480 1478 1479 1480 1483 1487 1492 1497 1501 1504 1506 1508 1509 1509 1510 1510 1510 1510 1509 1508 1508 1508 1507 1507 1507 1506 1506 1507 1507 1507 1507 1507 1507 1507 1507 1507 1507 1507 1506
1504 1515 1510 1530 1541 1546 1522 1505 1487 1479 1478 1477 1475 1477 1481 1486 1491 1495 1499 1502 1504 1506 1507 1507 1507 1507 1507 1507 1506 1505 1504 1504 1503 1503 1502 1501 1501 1502 1503 1503 1503 1503 1503 1503 1502 1502 1501 1500 1500
1500 1505 1517 1534 1545 1531 1517 1513 1495 1480 1476 1476 1477 1475 1480 1484 1490 1494 1498 1501 1503 1504 1504 1504 1504 1504 1504 1503 1502 1501 1500 1500 1500 1499 1498 1498 1498 1498 1498 1499 1499 1499 1499 1499 1498 1497 1496 1496 1496
1504 1508 1511 1514 1524 1525 1517 1503 1485 1479 1475 1475 1474 1477 1481 1484 1488 1492 1496 1499 1501 1501 1501 1501 1501 1500 1500 1499 1498 1497 1497 1497 1496 1495 1494 1495 1494 1494 1495 1495 1495 1495 1494 1494 1494 1493 1493 1493 1493
1501 1504 1504 1517 1521 1526 1527 1503 1477 1476 1472 1472 1474 1477 1481 1485 1489 1491 1494 1496 1498 1499 1499 1498 1497 1496 1496 1496 1495 1494 1493 1493 1492 1491 1490 1491 1491 1490 1491 1491 1491 1490 1490 1489 1489 1489 1489 1489 1489